User: anonymous   Login
Location: Newark
(32.8369°N, 35.2736°E)
Time: 13:52:51
(UTC+00:00)
Language:

LightSail 2 - Orbit

View from above orbital plane
View from above orbital plane
View from above satellite
View from above satellite

Ground track
Ground track

The orbit data is extracted from the following two-line orbital elements,

1 44420U 19036AC  21020.12599297  .00005609  00000-0  11422-2 0  9994
2 44420  24.0083 176.2739 0020386 344.3543  15.6319 14.58210147 81921
Epoch (UTC): 20 January 2021 03:01:25
Eccentricity: 0.0020386
inclination: 24.0083°
perigee height: 684 km
apogee height: 713 km
right ascension of ascending node: 176.2739°
argument of perigee: 344.3543°
revolutions per day: 14.58210147
mean anomaly at epoch: 15.6319°
orbit number at epoch: 8192

The dashed part of the orbit path shows where the satellite is in the earth's shadow,  

DLR